Location: Gombori
(14.9797°N, 2.9419°W)
Time: 13:09:29
(UTC+00:00)

METEOR 2-17 DEB - Pass Details

Date: 02 June 2022
Orbit: 896 x 935 km, 82.5° (Epoch: 24 June)

Event Time Altitude Azimuth Distance (km) Brightness Sun altitude
Rises 22:12:53 0° 335° (NNW) 3,504 ? -43.0°
Reaches altitude 10° 22:15:45 10° 322° (NW) 2,562 ? -43.4°
Enters shadow 22:17:42 18° 306° (NW) 2,053 ? -43.7°
